DB0LC-2 Weather Reports


Display with metric or nautical units.
time (UTC)temp
F
wind
direction
speed
MPH
gust
MPH
rain 1hr
in
rain 24hr
in
rain mn
in
humidity
%
barometer
mb
20260905055543 68 0 0.0 0.0 0.00 0.00 0.00 60 918.9
20260905054504 68 0 0.0 0.0 0.00 0.00 0.00 59 918.9
20260905054502 68 0 0.0 0.0 0.00 0.00 0.00 59 918.8
20260905052415 68 0 0.0 0.0 0.00 0.00 0.00 60 918.9
20260905051416 68 0 0.0 0.0 0.00 0.00 0.00 56 918.6
20260905051414 68 0 0.0 0.0 0.00 0.00 0.00 56 918.7
20260905050406 68 0 0.0 0.0 0.00 0.00 0.00 60 918.5
20260905045349 68 0 0.0 0.0 0.00 0.00 0.00 57 918.4
20260905044348 68 0 0.0 0.0 0.00 0.00 0.00 60 918.4
20260905043336 68 0 0.0 0.0 0.00 0.00 0.00 58 918.2
20260905041328 68 0 0.0 0.0 0.00 0.00 0.00 59 917.9
20260905035300 68 0 0.0 0.0 0.00 0.00 0.00 60 917.7
20260905034236 68 0 0.0 0.0 0.00 0.00 0.00 56 917.5
20260905033236 68 0 0.0 0.0 0.00 0.00 0.00 60 917.4
20260905032224 68 0 0.0 0.0 0.00 0.00 0.00 56 917.3
20260905031227 68 0 0.0 0.0 0.00 0.00 0.00 60 917.2
20260905030212 68 0 0.0 0.0 0.00 0.00 0.00 57 917.0
20260905025147 68 0 0.0 0.0 0.00 0.00 0.00 59 916.9
20260905024124 68 0 0.0 0.0 0.00 0.00 0.00 57 916.7
20260905023046 68 0 0.0 0.0 0.00 0.00 0.00 59 916.8
20260905022023 68 0 0.0 0.0 0.00 0.00 0.00 57 916.6
20260905021025 68 0 0.0 0.0 0.00 0.00 0.00 60 916.6
20260905020016 68 0 0.0 0.0 0.00 0.00 0.00 57 916.5
20260905014944 68 0 0.0 0.0 0.00 0.00 0.00 60 916.5
20260905013933 68 0 0.0 0.0 0.00 0.00 0.00 57 916.4
20260905012855 68 0 0.0 0.0 0.00 0.00 0.00 60 916.6
20260905011831 68 0 0.0 0.0 0.00 0.00 0.00 57 916.4
20260905010820 68 0 0.0 0.0 0.00 0.00 0.00 60 916.5
20260905005752 68 0 0.0 0.0 0.00 0.00 0.00 57 916.4
20260905004729 68 0 0.0 0.0 0.00 0.00 0.00 60 916.3
20260905003717 68 0 0.0 0.0 0.00 0.00 0.00 56 916.4
20260905002707 68 0 0.0 0.0 0.00 0.00 0.00 60 916.5
20260905001640 68 0 0.0 0.0 0.00 0.00 0.00 56 916.6
20260905000643 68 0 0.0 0.0 0.00 0.00 0.00 59 916.4
20260904235551 68 0 0.0 0.0 0.00 0.00 0.00 58 916.5
20260904234519 68 0 0.0 0.0 0.00 0.00 0.00 60 916.5
20260904233450 68 0 0.0 0.0 0.00 0.00 0.00 57 916.4
20260904232437 68 0 0.0 0.0 0.00 0.00 0.00 59 916.4
20260904231412 68 0 0.0 0.0 0.00 0.00 0.00 58 916.4
20260904230402 68 0 0.0 0.0 0.00 0.00 0.00 59 916.5
20260904224246 68 0 0.0 0.0 0.00 0.00 0.00 59 916.6
20260904223232 68 0 0.0 0.0 0.00 0.00 0.00 59 916.7
20260904221203 68 0 0.0 0.0 0.00 0.00 0.00 59 916.6
20260904220205 68 0 0.0 0.0 0.00 0.00 0.00 59 916.6
20260904215117 68 0 0.0 0.0 0.00 0.00 0.00 60 916.5
20260904214052 68 0 0.0 0.0 0.00 0.00 0.00 57 916.4
20260904213045 68 0 0.0 0.0 0.00 0.00 0.00 59 916.5
20260904212031 68 0 0.0 0.0 0.00 0.00 0.00 57 916.5
20260904210952 68 0 0.0 0.0 0.00 0.00 0.00 59 916.2
20260904205930 68 0 0.0 0.0 0.00 0.00 0.00 56 916.2
20260904205928 68 0 0.0 0.0 0.00 0.00 0.00 56 916.2
20260904204916 68 0 0.0 0.0 0.00 0.00 0.00 59 916.4
20260904203903 68 0 0.0 0.0 0.00 0.00 0.00 57 916.4
20260904202836 68 0 0.0 0.0 0.00 0.00 0.00 59 916.4
20260904201824 68 0 0.0 0.0 0.00 0.00 0.00 58 916.5
20260904200813 68 0 0.0 0.0 0.00 0.00 0.00 59 916.3
20260904195737 68 0 0.0 0.0 0.00 0.00 0.00 58 916.3
20260904194722 68 0 0.0 0.0 0.00 0.00 0.00 58 916.3
20260904193646 68 0 0.0 0.0 0.00 0.00 0.00 59 916.1
20260904192647 68 0 0.0 0.0 0.00 0.00 0.00 58 916.1
20260904191633 68 0 0.0 0.0 0.00 0.00 0.00 59 916.0
20260904185611 68 0 0.0 0.0 0.00 0.00 0.00 59 915.7
20260904184613 68 0 0.0 0.0 0.00 0.00 0.00 58 915.6
20260904182533 68 0 0.0 0.0 0.00 0.00 0.00 58 915.3
20260904180448 68 0 0.0 0.0 0.00 0.00 0.00 58 915.2
20260904175441 68 0 0.0 0.0 0.00 0.00 0.00 59 915.0
20260904172356 68 0 0.0 0.0 0.00 0.00 0.00 57 915.0
20260904171334 68 0 0.0 0.0 0.00 0.00 0.00 59 914.9
20260904165250 68 0 0.0 0.0 0.00 0.00 0.00 59 915.1
20260904164246 68 0 0.0 0.0 0.00 0.00 0.00 56 915.1
20260904163248 68 0 0.0 0.0 0.00 0.00 0.00 59 915.2
20260904162246 68 0 0.0 0.0 0.00 0.00 0.00 56 915.2
20260904161222 68 0 0.0 0.0 0.00 0.00 0.00 58 915.2
20260904160209 68 0 0.0 0.0 0.00 0.00 0.00 58 915.2
20260904155202 68 0 0.0 0.0 0.00 0.00 0.00 58 915.2
20260904155159 68 0 0.0 0.0 0.00 0.00 0.00 58 915.2
20260904154130 68 0 0.0 0.0 0.00 0.00 0.00 59 915.4
20260904152040 68 0 0.0 0.0 0.00 0.00 0.00 59 915.6
20260904151034 68 0 0.0 0.0 0.00 0.00 0.00 57 915.4
20260904150030 68 0 0.0 0.0 0.00 0.00 0.00 59 915.5
20260904145004 68 0 0.0 0.0 0.00 0.00 0.00 56 915.5
20260904141913 68 0 0.0 0.0 0.00 0.00 0.00 58 915.8
20260904135833 68 0 0.0 0.0 0.00 0.00 0.00 58 916.0
20260904134813 68 0 0.0 0.0 0.00 0.00 0.00 56 915.9
20260904133801 68 0 0.0 0.0 0.00 0.00 0.00 58 916.1
20260904132730 68 0 0.0 0.0 0.00 0.00 0.00 57 916.1
20260904131654 68 0 0.0 0.0 0.00 0.00 0.00 58 916.1
20260904124504 68 0 0.0 0.0 0.00 0.00 0.00 59 916.4
20260904123452 68 0 0.0 0.0 0.00 0.00 0.00 58 916.4
20260904122415 69 0 0.0 0.0 0.00 0.00 0.00 59 916.7
20260904121325 68 0 0.0 0.0 0.00 0.00 0.00 58 916.6
20260904114226 69 0 0.0 0.0 0.00 0.00 0.00 58 917.0
20260904114224 69 0 0.0 0.0 0.00 0.00 0.00 58 916.9
20260904112132 68 0 0.0 0.0 0.00 0.00 0.00 56 917.1
20260904111134 68 0 0.0 0.0 0.00 0.00 0.00 58 917.3
20260904110124 69 0 0.0 0.0 0.00 0.00 0.00 56 917.3
20260904105057 68 0 0.0 0.0 0.00 0.00 0.00 59 917.4
20260904104038 68 0 0.0 0.0 0.00 0.00 0.00 56 917.6
20260904104036 68 0 0.0 0.0 0.00 0.00 0.00 56 917.5
20260904103028 68 0 0.0 0.0 0.00 0.00 0.00 58 917.7
20260904101954 68 0 0.0 0.0 0.00 0.00 0.00 56 917.8
20260904100953 68 0 0.0 0.0 0.00 0.00 0.00 59 917.9
20260904094907 68 0 0.0 0.0 0.00 0.00 0.00 59 918.2
20260904093840 68 0 0.0 0.0 0.00 0.00 0.00 58 918.3
20260904092840 69 0 0.0 0.0 0.00 0.00 0.00 58 918.5
20260904090838 68 0 0.0 0.0 0.00 0.00 0.00 56 918.4
20260904085826 68 0 0.0 0.0 0.00 0.00 0.00 59 918.5
20260904084833 68 0 0.0 0.0 0.00 0.00 0.00 58 918.4
20260904083828 68 0 0.0 0.0 0.00 0.00 0.00 58 918.6
20260904082837 68 0 0.0 0.0 0.00 0.00 0.00 59 918.5
20260904081815 68 0 0.0 0.0 0.00 0.00 0.00 55 918.5
20260904080817 68 0 0.0 0.0 0.00 0.00 0.00 59 918.5
20260904075803 68 0 0.0 0.0 0.00 0.00 0.00 58 918.7
20260904074725 68 0 0.0 0.0 0.00 0.00 0.00 59 918.6
20260904073703 68 0 0.0 0.0 0.00 0.00 0.00 59 918.7
20260904072653 68 0 0.0 0.0 0.00 0.00 0.00 57 918.5
20260904070652 68 0 0.0 0.0 0.00 0.00 0.00 59 918.6
20260904065637 68 0 0.0 0.0 0.00 0.00 0.00 57 918.6
20260904064629 68 0 0.0 0.0 0.00 0.00 0.00 59 918.7
20260904063614 68 0 0.0 0.0 0.00 0.00 0.00 56 918.8
20260904063612 68 0 0.0 0.0 0.00 0.00 0.00 56 918.8
20260904061520 68 0 0.0 0.0 0.00 0.00 0.00 59 918.7